This demonstration page uses our WeatherBlox Daily Observations layout. Learn more.

Left ArrowRight Arrow

36.17497, -115.13722

Hourly Observations for December 30, 2018

Temp ( °F °C ) Dew Point ( °F °C ) Humidity (%) Winds ( mph kmh ) Pressure ( in mb ) Visibility ( mi km ) Precip ( " mm )
12:53 am 00:53 Clear 39 3.9 14 -10 36 36 N 8 13 30.28 1026 10 16.0934 0 0
1:53 am 01:53 Clear 38 3.3 14 -10 37 37 NW 5 7 30.27 1025 10 16.0934 0 0
2:53 am 02:53 Clear 38 3.3 14 -10 37 37 Calm 30.24 1024 10 16.0934 0 0
3:53 am 03:53 Clear 39 3.9 16 -8.9 39 39 N 8 13 30.21 1023 10 16.0934 0 0
4:53 am 04:53 Clear 35 1.7 16 -8.9 46 46 NW 7 11 30.2 1023 10 16.0934 0 0
5:53 am 05:53 Clear 37 2.8 17 -8.3 44 44 NNW 5 7 30.17 1022 10 16.0934 0 0
6:53 am 06:53 Sunny 33 0.6 16 -8.9 49 49 Calm 30.18 1022 10 16.0934 0 0
7:53 am 07:53 Sunny 36 2.2 18 -7.8 48 48 NNW 3 6 30.17 1022 10 16.0934 0 0
8:53 am 08:53 Sunny 41 5 19 -7.2 41 41 NNW 5 7 30.17 1022 10 16.0934 0 0
9:53 am 09:53 Sunny 44 6.7 18 -7.8 35 35 SE 3 6 30.14 1021 10 16.0934 0 0
10:53 am 10:53 Sunny 46 7.8 16 -8.9 30 30 SE 5 7 30.07 1018 10 16.0934 0 0
11:53 am 11:53 Sunny 48 8.9 16 -8.9 28 28 ESE 5 7 30.01 1016 10 16.0934 0 0
12:53 pm 12:53 Sunny 50 10 17 -8.3 27 27 ESE 6 9 29.98 1015 10 16.0934 0 0
1:53 pm 13:53 Sunny 52 11.1 18 -7.8 26 26 ESE 8 13 29.95 1014 10 16.0934 0 0
2:53 pm 14:53 Sunny 52 11.1 18 -7.8 26 26 E 5 7 29.93 1014 10 16.0934 0 0
3:53 pm 15:53 Sunny 52 11.1 17 -8.3 25 25 SE 6 9 29.91 1013 10 16.0934 0 0
4:53 pm 16:53 Clear 49 9.4 17 -8.3 28 28 Calm 29.9 1012 10 16.0934 0 0
5:53 pm 17:53 Clear 47 8.3 19 -7.2 33 33 Calm 29.88 1012 10 16.0934 0 0
6:53 pm 18:53 Clear 44 6.7 19 -7.2 37 37 Calm 29.87 1012 10 16.0934 0 0
7:53 pm 19:53 Clear 42 5.6 20 -6.7 41 41 NNW 6 9 29.86 1011 10 16.0934 0 0
8:53 pm 20:53 Clear 40 4.4 19 -7.2 43 43 NNW 6 9 29.84 1011 10 16.0934 0 0
9:53 pm 21:53 Clear 38 3.3 20 -6.7 48 48 NW 6 9 29.84 1010 10 16.0934 0 0
10:53 pm 22:53 Clear 38 3.3 20 -6.7 48 48 Calm 29.82 1010 10 16.0934 0 0
11:53 pm 23:53 Clear 39 3.9 20 -6.7 46 46 N 7 11 29.8 1009 10 16.0934 0 0

Powered by AerisWeather